STARLINK-34678, 65443

Orbit data source: Space-Track

STARLINK-34678, 65443 is a payload satellite owned by SpaceX/Seattle (US) in SSO that was launched on Wed, 03 Sep 2025 UTC via an FALCON 9 launch vehicle from the Air Force Western Test Range (AFWTR). Payload-class satellites include a variety of spacecraft equipped with specific instruments for various scientific and technological missions. These include communications satellites like Starlink; space stations such as the ISS; scientific satellites like the Hubble; Earth observation satellites from companies like Planet Labs, Umbra, and HawkEye 360; GPS; miniature CubeSats for education and research; and military/defense satellites.

Loading next visibility...
Identifier
65443, 2025-194K
Orbit
SSO
Country
Flag of USUS
Related business
Manufacturer
SpaceX/Seattle
Mission
Operational Commercial Communications
Bus & Motor
STARLINK V2MO, Unknown motor
Mass
575 kg wet, ~530 kg dry
Launch date (UTC)
2025-09-03 (10 months ago)
Launch vehicle
FALCON 9
Launch site
Air Force Western Test Range (AFWTR)
Object type
Payload
Rocket body
Debris
Shape & HBR
Box + 2 Pan, 17.7 m
Radar Cross Section
36.964 m², Large (>1 m²)

Expand to show TLE details & history
Last TLE update: 23 hours ago

TLE from 23 hours ago
0 STARLINK-34678
1 65443U 25194K   26171.02325426  .00005427  00000-0  37977-3 0  9998
2 65443  97.3411  24.1359 0001829  85.4632 274.6804 15.05655614 45043
Epoch: 2026-06-20T00:33Z
TLE epoch observation values (Epoch: 2026-06-20T00:33:29.168Z)
Latitude
-0.00004°
Longitude
107.52054°
Altitude
552.463 km
Speed
7.586 km/s
True Right ascension
01h 36m 32s
True Declination
0° 00' 00"
Sunlit
Object was in daylight at epoch
Visualization orbit readout
Latitude
Unknown
Longitude
Unknown
Altitude
Unknown
Speed
Unknown
Apparent Right ascension
Unknown
Apparent Declination
Unknown
Sunlit
N/A
Visualization observer readout
Local Sidereal Time
10:19:43
Azimuth
Unknown
Elevation
Unknown
Doppler factor
Unknown
Orbital elements
Apogee altitude
547.743 km
Perigee altitude
545.21 km
Semi-major axis
6,924.613 km
Eccentricity
0.00018
Inclination
97.3411°
RAAN
24.1359°
Arg. of periapsis
85.4632°
True anomaly
274.65951°
Mean anomaly
274.6804°
Eccentric anomaly
274.66996°
Mean motion
3.7666 °/min
Orbital period
95.58 mins
BSTAR
0.00037977
Loading maneuver chart data...
Computing Atmospheric mass density...
Loading historical data...
Loading historical data...
Loading historical data...
Loading historical data...
Loading historical data...
Loading historical data...
Loading historical data...

Documentation

Showing up to 5 results
|